Location: Brunembert
(50.7122°N, 1.8935°E)
Time: 05:02:46
(UTC+00:00)

SL-24 DEB - Pass Details

Date: 22 April 2021
Orbit: 664 x 701 km, 92.0° (Epoch: 06 May)

Event Time Altitude Azimuth Distance (km) Brightness Sun altitude
Exits shadow 22:32:22 62° 79° (E) 762 4.3 -24.5°
Drops below altitude 10° 22:36:55 10° 1° (N) 2,108 7.7 -24.7°
Sets 22:39:11 0° 358° (N) 3,023 8.8 -24.9°
